Time,TemperatureF,DewpointF,PressureIn,WindDirection,WindDirectionDegrees,WindSpeedMPH,WindSpeedGustMPH,Humidity,HourlyPrecipIn,Conditions,Clouds,dailyrainin,SoftwareType,DateUTC
2013-08-16 00:23:00,58.0,57.0,-100.00,SSE,165,0.0,0.0,94,0.00,,,-99.99,,2013-08-16 04:23:00,
2013-08-16 00:53:00,58.0,56.0,-100.00,SSE,160,0.0,0.0,95,0.00,,,-99.99,,2013-08-16 04:53:00,
2013-08-16 01:22:00,57.0,56.0,-100.00,SSE,160,0.0,0.0,95,0.00,,,-99.99,,2013-08-16 05:22:00,
2013-08-16 01:58:00,57.0,56.0,-100.00,SSE,165,0.0,1.0,95,0.00,,,-99.99,,2013-08-16 05:58:00,
2013-08-16 03:00:00,56.0,55.0,-100.00,SSE,160,0.0,0.0,95,0.00,,,-99.99,,2013-08-16 07:00:00,
2013-08-16 03:21:00,56.0,55.0,-100.00,SSE,160,0.0,0.0,96,0.00,,,-99.99,,2013-08-16 07:21:00,
2013-08-16 03:52:00,56.0,55.0,-100.00,SSE,160,0.0,0.0,96,0.00,,,-99.99,,2013-08-16 07:52:00,
2013-08-16 04:21:00,56.0,55.0,-100.00,SSE,165,0.0,0.0,96,0.00,,,-99.99,,2013-08-16 08:21:00,
2013-08-16 04:52:00,56.0,55.0,-100.00,SSE,165,0.0,0.0,96,0.00,,,-99.99,,2013-08-16 08:52:00,
2013-08-16 05:21:00,56.0,55.0,-100.00,SSE,165,0.0,0.0,96,0.00,,,-99.99,,2013-08-16 09:21:00,
2013-08-16 05:53:00,56.0,55.0,-100.00,SSE,165,0.0,0.0,96,0.00,,,-99.99,,2013-08-16 09:53:00,
2013-08-16 06:23:00,56.0,55.0,-100.00,SSE,160,0.0,0.0,96,0.00,,,-99.99,,2013-08-16 10:23:00,
2013-08-16 06:52:00,55.0,54.0,-100.00,SSE,155,0.0,0.0,96,0.00,,,-99.99,,2013-08-16 10:52:00,
2013-08-16 07:21:00,55.0,54.0,-100.00,ESE,105,0.0,0.0,96,0.00,,,-99.99,,2013-08-16 11:21:00,
2013-08-16 07:52:00,55.0,54.0,-100.00,SE,130,0.0,1.0,96,0.00,,,-99.99,,2013-08-16 11:52:00,
2013-08-16 08:12:00,55.0,54.0,-100.00,SE,125,0.0,2.0,96,0.00,,,-99.99,,2013-08-16 12:12:00,
2013-08-16 08:21:00,57.0,56.0,-100.00,SE,125,0.0,0.0,96,0.00,,,-99.99,,2013-08-16 12:21:00,
2013-08-16 08:52:00,58.0,57.0,-100.00,ESE,105,0.0,0.0,96,0.00,,,-99.99,,2013-08-16 12:52:00,
2013-08-16 09:22:00,60.0,59.0,-100.00,SE,130,1.0,2.0,96,0.00,,,-99.99,,2013-08-16 13:22:00,
2013-08-16 09:53:00,63.0,62.0,-100.00,SE,130,2.0,3.0,96,0.00,,,-99.99,,2013-08-16 13:53:00,
2013-08-16 10:22:00,68.0,57.0,-100.00,ESE,120,0.0,4.0,67,0.00,,,-99.99,,2013-08-16 14:22:00,
2013-08-16 10:52:00,72.0,52.0,-100.00,West,275,1.0,1.0,49,0.00,,,-99.99,,2013-08-16 14:52:00,
2013-08-16 11:22:00,74.0,51.0,-100.00,SW,230,0.0,4.0,45,0.00,,,-99.99,,2013-08-16 15:22:00,
2013-08-16 11:56:00,74.0,51.0,-100.00,NE,55,3.0,4.0,44,0.00,,,-99.99,,2013-08-16 15:56:00,
2013-08-16 12:23:00,74.0,49.0,-100.00,West,280,0.0,4.0,42,0.00,,,-99.99,,2013-08-16 16:23:00,
2013-08-16 12:57:00,75.0,51.0,-100.00,NE,45,0.0,7.0,42,0.00,,,-99.99,,2013-08-16 16:57:00,
2013-08-16 13:28:00,76.0,50.0,-100.00,ESE,105,1.0,7.0,41,0.00,,,-99.99,,2013-08-16 17:28:00,
2013-08-16 14:00:00,76.0,51.0,-100.00,NE,35,2.0,4.0,41,0.00,,,-99.99,,2013-08-16 18:00:00,
2013-08-16 14:28:00,75.0,52.0,-100.00,NE,45,0.0,6.0,44,0.00,,,-99.99,,2013-08-16 18:28:00,
2013-08-16 14:50:00,-999.0,-99.9,-100.00,East,90,2.0,4.0,43,0.00,,,-99.99,,2013-08-16 18:50:00,
2013-08-16 15:25:00,76.0,53.0,-100.00,NE,55,2.0,6.0,45,0.00,,,-99.99,,2013-08-16 19:25:00,
2013-08-16 15:55:00,77.0,51.0,-100.00,NNE,25,6.0,9.0,40,0.00,,,-99.99,,2013-08-16 19:55:00,
2013-08-16 16:02:00,77.0,51.0,-100.00,NNE,25,6.0,9.0,40,0.00,,,-99.99,,2013-08-16 20:02:00,
2013-08-16 16:23:00,76.0,51.0,-100.00,ENE,70,2.0,6.0,41,0.00,,,-99.99,,2013-08-16 20:23:00,
2013-08-16 16:52:00,78.0,51.0,-100.00,NE,35,4.0,6.0,39,0.00,,,-99.99,,2013-08-16 20:52:00,
2013-08-16 17:25:00,77.0,52.0,-100.00,East,100,1.0,6.0,41,0.00,,,-99.99,,2013-08-16 21:25:00,
2013-08-16 17:40:00,-999.0,-99.9,-100.00,ESE,120,5.0,7.0,-999,0.00,,,-99.99,,2013-08-16 21:40:00,
2013-08-16 17:53:00,76.0,54.0,-100.00,ESE,115,2.0,4.0,45,0.00,,,-99.99,,2013-08-16 21:53:00,
2013-08-16 18:24:00,76.0,52.0,-100.00,NE,45,0.0,7.0,43,0.00,,,-99.99,,2013-08-16 22:24:00,
2013-08-16 18:52:00,75.0,52.0,-100.00,ESE,110,2.0,5.0,44,0.00,,,-99.99,,2013-08-16 22:52:00,
2013-08-16 19:23:00,74.0,53.0,-100.00,NE,45,3.0,5.0,47,0.00,,,-99.99,,2013-08-16 23:23:00,
2013-08-16 19:52:00,72.0,53.0,-100.00,NE,50,0.0,4.0,52,0.00,,,-99.99,,2013-08-16 23:52:00,
2013-08-16 20:21:00,69.0,55.0,-100.00,ENE,75,0.0,1.0,60,0.00,,,-99.99,,2013-08-17 00:21:00,
2013-08-16 20:52:00,66.0,56.0,-100.00,ENE,75,0.0,0.0,70,0.00,,,-99.99,,2013-08-17 00:52:00,
2013-08-16 21:21:00,64.0,58.0,-100.00,NNE,25,0.0,0.0,79,0.00,,,-99.99,,2013-08-17 01:21:00,
2013-08-16 21:52:00,63.0,57.0,-100.00,NE,40,0.0,0.0,82,0.00,,,-99.99,,2013-08-17 01:52:00,
2013-08-16 22:21:00,61.0,57.0,-100.00,NE,40,0.0,0.0,85,0.00,,,-99.99,,2013-08-17 02:21:00,
2013-08-16 22:52:00,60.0,57.0,-100.00,NE,45,0.0,0.0,88,0.00,,,-99.99,,2013-08-17 02:52:00,
2013-08-16 23:22:00,59.0,57.0,-100.00,NE,40,0.0,0.0,91,0.00,,,-99.99,,2013-08-17 03:22:00,
2013-08-16 23:53:00,58.0,56.0,-100.00,NE,40,0.0,0.0,93,0.00,,,-99.99,,2013-08-17 03:53:00,